This is the latest recevied weather packets stored in our database for station/object HS2XQB-3. If no packets are shown the sender has not sent any weather packets the latest 10 day(s).
| Time | Temp. | Humidity | Pressure | Rain* | Wind** | Luminosity | Snow |
|---|---|---|---|---|---|---|---|
| 1778207393 | 23.89° C | 60% | 1006 hPa | - | - | 0 W/m² | - |
| 1778205571 | 23.89° C | 63% | 1006 hPa | - | - | 0 W/m² | - |
| 1778203749 | 24.44° C | 76% | 1006 hPa | - | - | 0 W/m² | - |
| 1778201926 | 24.44° C | 78% | 1005 hPa | - | - | 0 W/m² | - |
| 1778200104 | 24.44° C | 76% | 1005 hPa | - | - | 0 W/m² | - |
| 1778198281 | 23.89° C | 78% | 1005 hPa | - | - | 0 W/m² | - |
| 1778196459 | 23.89° C | 83% | 1004 hPa | - | - | 0 W/m² | - |
| 1778194636 | 23.89° C | 82% | 1004 hPa | - | - | 0 W/m² | - |
| 1778192814 | 23.33° C | 79% | 1004 hPa | - | - | 0 W/m² | - |
| 1778190992 | 23.89° C | 80% | 1004 hPa | - | - | 0 W/m² | - |
| 1778189144 | 23.33° C | 82% | 1003 hPa | - | - | 0 W/m² | - |
| 1778187322 | 23.89° C | 86% | 1003 hPa | - | - | 0 W/m² | - |
| 1778185500 | 23.89° C | 87% | 1003 hPa | - | - | 0 W/m² | - |
| 1778183678 | 23.89° C | 87% | 1004 hPa | - | - | 0 W/m² | - |
| 1778181855 | 23.89° C | 84% | 1004 hPa | - | - | 0 W/m² | - |
| 1778180033 | 23.89° C | 84% | 1004 hPa | - | - | 0 W/m² | - |
| 1778178211 | 23.89° C | 77% | 1004 hPa | - | - | 0 W/m² | - |
| 1778176389 | 23.89° C | 84% | 1004 hPa | - | - | 0 W/m² | - |
| 1778174567 | 23.89° C | 77% | 1005 hPa | - | - | 0 W/m² | - |
| 1778172745 | 23.89° C | 84% | 1005 hPa | - | - | 0 W/m² | - |
| 1778170923 | 23.89° C | 76% | 1005 hPa | - | - | 0 W/m² | - |
| 1778169102 | 23.89° C | 81% | 1005 hPa | - | - | 0 W/m² | - |
| 1778167279 | 24.44° C | 83% | 1005 hPa | - | - | 0 W/m² | - |
| 1778165457 | 23.33° C | 75% | 1005 hPa | - | - | 0 W/m² | - |
| 1778163634 | 24.44° C | 82% | 1005 hPa | - | - | 0 W/m² | - |
* Rain since midnight (hover to see other rain measurements)
** Current wind speed in m/s (hover to see current wind gust speed)